Location: Bakhuizen
(52.8696°N, 5.4575°E)
Time: 21:35:45
(UTC+00:00)

Meteor 1-15 Rocket - Pass Details

Date: 11 May 2021
Orbit: 840 x 907 km, 81.2° (Epoch: 24 June)

Event Time Altitude Azimuth Distance (km) Brightness Sun altitude
Rises 23:44:45 0° 346° (NNW) 3,435 8.8 -19.0°
Reaches altitude 10° 23:47:10 10° 347° (NNW) 2,503 7.8 -18.9°
Maximum altitude 23:52:52 86° 76° (ENE) 878 4.2 -18.9°
Enters shadow 23:55:44 31° 165° (SSE) 1,478 4.9 -18.8°
